This demonstration page uses our WeatherBlox Daily Observations layout. Learn more.

Left ArrowRight Arrow

Hourly Observations for April 4, 2016

Temp ( °F °C ) Dew Point ( °F °C ) Humidity (%) Winds ( mph kmh ) Pressure ( in mb ) Visibility ( mi km ) Precip ( " mm )
12:54 am 00:54 Clear 54 12.2 36 2.2 51 51 N 5 7 29.97 1015 10 16 0.00 0.00
1:54 am 01:54 Clear 50 10 33 0.6 52 52 N 5 7 29.99 1016 10 16 0.00 0.00
2:54 am 02:54 Clear 48 8.9 32 0 54 54 NNW 5 7 30.03 1017 10 16 0.00 0.00
3:54 am 03:54 Clear 39 3.9 31 -0.6 73 73 N 7 11 30.06 1018 10 16 0.00 0.00
4:54 am 04:54 Clear 42 5.6 32 0 68 68 NE 6 9 30.09 1019 10 16 0.00 0.00
5:54 am 05:54 Clear 37 2.8 30 -1.1 76 76 N 6 9 30.13 1020 10 16 0.00 0.00
6:54 am 06:54 Clear 37 2.8 30 -1.1 76 76 N 9 15 30.17 1022 10 16 0.00 0.00
7:54 am 07:54 Sunny 38 3.3 31 -0.6 76 76 N 8 13 30.21 1023 10 16 0.00 0.00
8:54 am 08:54 Sunny 44 6.7 30 -1.1 58 58 N 15 24 30.24 1024 10 16 0.00 0.00
9:54 am 09:54 Sunny 47 8.3 28 -2.2 48 48 N 16 26 30.28 1025 10 16 0.00 0.00
10:54 am 10:54 Sunny 50 10 30 -1.1 46 46 N 9 15 30.29 1026 10 16 0.00 0.00
11:54 am 11:54 Sunny 53 11.7 29 -1.7 40 40 NNE 12 19 30.31 1026 10 16 0.00 0.00
12:54 pm 12:54 Sunny 56 13.3 28 -2.2 34 34 NNE 13 20 30.30 1026 10 16 0.00 0.00
1:54 pm 13:54 Sunny 59 15 27 -2.8 29 29 ENE 12 19 30.29 1026 10 16 0.00 0.00
2:54 pm 14:54 Sunny 61 16.1 28 -2.2 29 29 ENE 12 19 30.28 1025 10 16 0.00 0.00
3:54 pm 15:54 Sunny 60 15.6 28 -2.2 30 30 E 9 15 30.26 1025 10 16 0.00 0.00
4:54 pm 16:54 Sunny 61 16.1 28 -2.2 29 29 E 9 15 30.25 1024 10 16 0.00 0.00
5:54 pm 17:54 Sunny 60 15.6 28 -2.2 30 30 E 7 11 30.24 1024 10 16 0.00 0.00
6:54 pm 18:54 Sunny 58 14.4 28 -2.2 32 32 ENE 9 15 30.24 1024 10 16 0.00 0.00
7:54 pm 19:54 Sunny 52 11.1 29 -1.7 41 41 NE 8 13 30.26 1025 10 16 0.00 0.00
8:54 pm 20:54 Clear 46 7.8 29 -1.7 51 51 ENE 9 15 30.27 1025 10 16 0.00 0.00
9:54 pm 21:54 Clear 49 9.4 29 -1.7 46 46 E 10 17 30.28 1025 10 16 0.00 0.00
10:54 pm 22:54 Clear 49 9.4 29 -1.7 46 46 E 8 13 30.27 1025 10 16 0.00 0.00
11:54 pm 23:54 Clear 50 10 27 -2.8 41 41 ESE 14 22 30.24 1024 10 16 0.00 0.00

Powered by AerisWeather